Theta_e
316 320 323 323 321 318 322 324 321 322 322 321 322 321 321 323 325 327 338 338 340 338 337 332 333 330 330 330 331 333 334 334 335 335 335 335 336 336 336 337 337 337 336 336 335 335 335 335 335
311 318 322 323 320 321 321 319 321 320 321 322 322 323 322 330 334 337 338 340 340 338 339 332 334 331 331 331 332 333 334 334 334 335 335 335 335 335 335 336 336 336 338 337 335 336 336 336 336
309 318 323 319 318 319 320 318 318 319 321 319 321 323 324 327 331 333 336 338 339 335 333 335 335 331 330 333 333 333 333 334 334 334 333 333 334 334 334 334 335 336 336 335 332 333 334 333 333
309 321 322 320 320 319 319 320 318 318 321 320 321 321 328 332 332 333 335 336 337 335 332 336 336 331 331 333 333 334 334 334 334 333 332 332 332 333 333 333 330 322 320 319 319 318 318 318 317
319 322 319 320 319 318 317 319 320 318 318 319 320 320 326 332 334 334 334 337 338 337 335 338 335 331 331 333 333 334 335 336 332 331 331 331 332 332 328 322 322 323 323 321 320 320 319 320 324
321 318 318 321 319 317 316 318 318 317 319 319 320 320 324 328 330 329 331 336 340 339 338 338 335 331 331 333 333 335 335 335 331 331 331 330 326 323 324 325 324 323 322 324 327 329 330 330 330
316 313 317 317 318 318 317 318 316 317 316 317 320 322 324 328 330 329 331 335 339 338 337 337 335 333 331 332 332 333 331 332 330 328 326 324 325 326 325 324 324 325 328 330 330 330 329 327 321
317 311 315 314 317 317 315 314 316 317 317 319 320 318 321 323 328 330 331 334 337 336 335 335 335 334 331 332 332 330 331 332 330 328 327 327 326 326 326 327 328 329 330 329 328 323 316 311 309
315 313 313 315 315 315 313 311 313 313 316 318 319 318 319 321 329 329 330 332 333 335 335 334 334 334 333 332 332 330 331 331 332 332 330 327 327 328 328 329 329 329 328 324 318 312 309 306 304
312 311 313 312 314 314 313 310 310 312 312 315 317 319 322 323 328 326 328 328 329 334 336 334 334 334 334 332 332 331 331 332 332 333 330 328 328 328 329 329 327 325 321 313 308 305 303 303 304
311 312 311 314 315 315 312 309 310 310 310 316 315 315 317 327 325 326 327 326 326 327 330 332 333 333 334 333 332 331 331 331 331 332 330 329 329 329 328 325 322 316 308 305 303 303 304 303 302
308 309 311 313 308 307 308 309 308 310 310 311 311 311 311 316 324 325 326 327 327 327 328 329 324 330 333 334 332 332 331 331 330 331 330 329 329 329 325 320 313 307 304 303 303 304 303 302 302
305 305 306 306 306 306 306 306 307 307 308 309 310 310 310 311 314 318 324 325 325 325 326 328 325 324 327 328 332 332 332 331 331 331 330 329 329 328 322 313 307 304 303 303 303 303 302 302 302
304 305 305 305 305 305 305 304 306 307 307 307 308 308 308 308 309 313 320 323 324 325 324 328 327 327 326 325 324 331 332 331 331 332 330 329 329 325 314 307 305 303 303 303 303 302 301 301 302
305 304 303 304 305 304 305 303 303 305 306 306 307 307 308 308 309 309 314 316 317 320 324 323 324 325 327 326 325 326 332 331 331 330 330 328 326 321 308 305 303 303 303 303 303 301 301 301 301
302 302 302 303 305 306 304 304 305 306 305 306 306 306 307 307 307 308 309 313 316 316 319 321 323 325 326 326 327 327 332 331 331 330 329 327 324 315 306 304 303 303 303 303 302 301 301 301 301
300 301 302 304 304 304 304 303 305 306 306 305 306 306 305 306 306 306 308 308 310 313 313 317 322 326 326 327 327 328 330 332 331 329 327 325 323 320 317 304 303 303 303 303 302 301 301 301 301
304 303 303 303 304 303 302 302 303 305 305 304 303 302 302 303 303 304 306 309 309 310 311 311 315 322 322 326 327 329 330 330 329 328 326 325 318 312 307 303 303 303 303 303 302 300 301 300 300
303 303 303 302 302 303 303 302 302 301 300 301 300 301 301 301 301 302 304 306 308 309 311 311 313 320 320 320 325 327 326 326 326 327 325 325 320 309 304 303 303 303 302 302 301 300 301 300 300
303 303 303 301 302 303 302 302 301 301 301 301 300 300 300 300 301 302 302 303 306 309 313 319 318 321 321 320 321 324 325 325 325 325 323 316 317 306 304 304 303 302 302 302 301 300 300 300 300
303 303 302 303 301 301 300 301 302 302 301 300 299 299 298 299 299 300 301 302 302 306 311 316 320 321 327 323 322 323 324 324 324 323 319 317 317 305 303 303 303 302 302 302 300 300 300 300 300
304 302 302 303 301 301 300 297 302 302 299 297 296 296 295 297 298 298 299 301 301 302 303 306 316 323 325 325 324 322 321 322 323 324 322 315 307 305 303 303 302 302 302 301 300 300 300 299 300
303 302 302 302 301 301 300 298 299 301 299 297 295 294 294 294 295 296 298 299 300 301 304 306 308 320 321 323 323 323 323 322 322 323 319 315 308 304 309 305 302 302 301 301 300 300 300 299 301
301 302 298 299 299 291 299 299 300 300 300 297 295 293 293 293 293 294 295 298 299 300 301 308 312 315 316 317 319 321 321 321 321 321 320 317 312 305 304 303 306 302 301 301 300 300 299 300 302
300 298 289 291 291 294 300 300 300 298 297 296 294 293 292 292 292 293 293 294 296 298 299 301 307 310 312 314 313 315 317 317 317 317 318 318 314 308 314 305 304 302 301 300 299 299 299 301 303
300 297 292 288 293 298 301 302 302 296 295 296 293 292 291 291 291 292 293 293 294 295 297 299 300 303 308 310 311 310 312 313 313 313 313 314 314 310 306 312 302 301 301 300 299 299 300 302 302
300 299 298 290 286 295 300 299 297 293 292 295 293 292 291 291 291 291 292 292 292 293 294 295 298 299 300 302 308 310 309 310 311 312 311 311 309 308 309 307 302 301 301 300 299 299 301 302 302
300 300 299 292 292 298 297 301 302 295 291 291 294 292 291 291 290 291 292 292 292 292 292 293 295 296 298 300 300 304 308 309 309 309 309 309 309 308 306 306 303 302 301 300 299 299 302 301 301
296 296 295 297 296 292 292 299 299 296 291 292 293 293 291 290 291 290 291 290 290 291 291 292 292 293 296 298 299 300 304 307 308 308 308 308 309 308 305 307 304 302 301 300 299 299 302 301 301
296 298 297 293 295 295 294 298 293 290 290 291 292 292 290 290 290 290 290 290 289 289 289 290 291 291 292 295 298 298 300 304 306 307 308 307 307 307 306 305 303 303 301 300 299 299 302 301 301
Wind_Speed
10 7 5 2 2 4 3 6 3 8 7 2 5 2 4 4 3 3 5 8 6 12 18 21 18 17 17 18 18 18 17 16 17 17 16 15 13 12 11 10 8 7 6 6 6 6 5 4 3
9 7 5 1 3 3 5 5 7 8 10 23 18 5 1 4 4 2 12 7 7 9 18 21 19 18 18 18 18 18 17 16 16 15 15 14 13 12 11 10 9 9 8 8 6 6 4 4 3
7 8 4 3 4 6 5 5 8 6 16 6 3 4 4 3 5 3 7 7 10 10 18 20 19 18 18 18 17 17 17 16 16 15 14 14 13 12 11 11 11 9 8 7 5 5 4 3 3
8 7 2 2 7 5 6 1 2 10 16 8 5 2 2 5 5 5 6 8 9 11 16 18 18 18 19 18 18 17 16 16 16 15 15 14 13 12 11 10 9 7 5 4 4 4 3 3 3
12 4 2 3 5 5 5 7 12 7 9 14 5 3 2 5 7 5 5 9 9 13 16 18 18 18 18 18 17 16 17 16 15 14 14 13 12 12 10 9 7 6 5 4 3 3 3 3 3
5 3 1 8 5 3 7 8 7 6 20 22 6 3 3 5 6 6 5 6 11 10 13 17 18 18 17 18 18 16 16 15 15 14 13 13 12 11 9 8 6 5 4 4 4 4 4 5 6
4 3 4 3 3 4 8 7 5 13 15 19 10 3 3 9 9 6 6 8 11 14 7 16 17 18 17 18 18 16 15 14 14 14 13 13 12 10 9 8 7 6 5 5 5 5 6 6 6
2 3 2 4 3 5 2 8 6 6 7 6 6 3 3 8 12 12 9 11 13 13 10 14 17 18 19 18 18 18 17 16 15 14 12 11 11 10 9 7 7 6 5 6 6 6 6 7 9
3 2 2 3 3 5 4 6 9 16 7 11 1 2 6 4 14 14 13 15 15 15 15 14 17 18 20 19 19 18 18 16 16 14 11 11 11 10 9 8 7 7 7 7 7 8 10 11 11
4 3 6 5 3 5 9 3 12 8 17 10 4 6 4 4 13 16 17 17 17 18 19 17 17 20 22 21 21 20 19 20 19 17 13 12 12 11 10 9 8 8 8 8 10 10 9 10 10
5 5 4 7 15 13 5 11 2 5 6 7 3 12 8 4 10 15 17 17 17 15 18 18 17 17 20 22 22 22 22 22 21 19 16 14 13 12 10 10 9 8 9 9 9 8 8 9 10
2 5 4 4 8 10 8 11 5 11 17 21 20 19 14 8 13 14 17 18 15 17 18 20 21 19 20 21 23 22 23 25 23 21 19 17 15 13 12 10 9 9 9 8 7 8 8 9 8
3 3 10 14 17 13 12 15 12 21 22 23 24 23 10 14 15 14 18 19 19 20 20 23 20 24 19 21 23 22 24 26 24 23 21 19 17 14 13 10 9 9 8 7 8 8 8 8 7
5 9 14 13 18 16 8 13 3 25 19 19 21 20 17 18 18 17 14 17 20 22 23 24 25 25 24 21 21 26 24 26 26 25 24 21 16 15 13 11 10 9 8 8 8 8 8 7 7
6 6 7 5 7 4 1 6 6 15 12 11 9 9 14 13 14 21 19 17 16 21 22 24 26 28 29 29 27 29 29 27 26 26 26 19 17 16 13 10 11 9 9 8 8 8 8 7 7
3 3 4 5 6 5 4 7 6 15 19 17 14 18 19 20 17 11 19 20 19 18 25 26 24 26 29 31 31 28 30 30 28 24 23 21 16 14 12 11 14 12 9 9 9 8 8 7 6
4 3 3 7 4 3 5 7 7 22 23 19 24 27 22 22 15 12 11 18 23 22 23 25 26 24 27 30 31 30 29 29 31 27 25 21 19 14 13 17 14 11 10 10 10 9 8 7 7
4 3 3 5 4 6 4 8 6 16 16 19 15 16 15 12 12 11 12 12 12 18 24 26 24 23 22 24 29 31 30 32 30 29 24 23 22 18 16 17 14 13 12 11 11 9 8 8 7
0 3 6 5 7 3 3 7 10 15 22 19 20 24 25 23 18 11 6 10 12 16 14 24 24 26 26 23 26 31 29 33 28 30 28 27 22 21 17 18 16 14 12 12 11 10 9 8 8
3 3 5 6 1 2 6 4 6 11 13 17 18 23 24 26 24 21 14 8 4 7 12 16 23 30 30 26 26 28 28 27 30 31 29 25 21 21 20 19 17 16 14 13 12 11 10 10 10
4 5 4 5 4 1 5 2 2 4 14 18 22 22 26 27 29 27 22 16 8 5 7 14 16 22 29 28 27 26 26 26 30 30 31 30 24 25 21 21 19 17 15 14 13 12 12 12 12
3 4 4 2 3 2 3 4 3 3 8 12 18 24 26 28 31 31 30 26 18 13 9 10 15 17 24 29 27 25 25 24 24 30 33 28 25 25 23 23 21 19 17 15 14 13 13 13 14
6 1 1 1 3 2 2 3 4 7 4 6 12 19 24 26 30 33 34 32 27 19 15 9 8 13 19 25 25 24 26 25 24 25 31 31 26 25 27 20 22 20 18 17 15 14 14 14 15
2 2 5 4 2 2 6 6 3 4 7 4 5 17 23 27 30 31 31 32 32 28 18 13 4 7 12 17 22 24 26 28 25 26 29 32 32 27 22 23 24 22 20 18 16 16 15 16 16
3 5 3 4 3 5 0 3 3 1 6 7 5 15 21 25 28 30 32 33 32 32 30 21 11 3 9 16 17 21 25 27 28 27 27 30 30 30 24 25 27 24 20 19 17 17 16 17 17
5 7 5 6 4 4 1 5 4 4 9 12 11 13 18 23 25 26 27 28 30 30 29 28 22 9 6 10 15 17 23 26 28 27 27 29 26 26 27 27 29 25 21 19 18 18 17 17 17
4 4 4 6 2 3 3 2 3 4 3 8 6 10 14 17 20 22 22 25 26 27 28 27 25 21 12 9 12 17 19 22 24 25 26 27 28 27 25 28 30 26 23 20 19 18 18 17 16
2 3 2 2 2 5 4 4 5 14 8 6 3 4 10 13 15 18 18 20 21 23 24 23 24 23 20 15 11 14 17 21 21 23 24 25 26 27 27 27 28 27 24 22 20 19 18 17 15
4 2 2 2 4 5 1 5 3 16 11 8 8 2 6 11 13 15 16 16 18 19 20 23 23 23 21 18 15 12 14 17 20 22 21 22 24 25 26 28 26 28 26 23 21 19 18 16 15
1 1 2 3 5 2 2 9 5 13 13 11 6 2 6 8 11 13 14 16 18 20 20 21 23 23 22 20 18 16 13 16 18 20 21 21 23 24 25 28 29 30 27 24 22 19 16 15 14
Wind_Direction
238 235 224 242 60 65 243 248 264 284 323 314 330 266 189 162 226 246 161 145 149 179 180 182 180 182 178 175 173 168 167 166 166 168 172 172 170 170 167 165 164 164 152 158 164 161 165 172 182
224 219 213 170 123 177 245 242 247 243 263 286 289 271 187 203 181 244 166 173 153 193 186 180 178 179 179 176 176 172 169 169 169 168 168 168 167 165 162 159 152 145 144 146 148 154 157 175 192
202 184 176 154 186 198 223 212 244 280 312 267 224 223 186 203 202 214 188 187 165 180 180 179 178 178 178 177 176 174 171 171 173 172 170 169 168 165 161 158 157 156 144 141 159 167 183 205 230
168 166 146 151 237 263 227 229 189 311 326 300 261 231 180 203 165 191 207 189 179 172 179 182 182 179 177 177 176 174 171 171 173 173 172 171 169 165 164 167 172 174 164 167 172 184 204 220 239
160 152 192 243 249 267 271 272 280 292 298 282 264 259 224 194 189 209 214 196 193 177 182 187 186 183 180 177 177 176 176 176 176 176 174 171 170 170 171 174 174 176 184 193 199 203 216 234 249
140 135 121 240 241 250 286 279 279 255 280 277 272 222 217 184 199 216 228 211 187 188 182 194 189 188 179 179 177 177 175 171 177 176 177 177 174 174 178 184 190 193 198 197 204 219 238 258 271
125 98 219 237 283 276 245 295 248 267 268 265 249 180 216 187 188 209 220 209 191 186 190 200 197 190 185 183 183 182 180 183 182 184 181 180 180 182 187 191 198 204 216 227 235 245 255 264 271
156 97 270 245 226 273 331 343 321 358 304 286 212 217 232 208 191 194 198 209 202 194 196 198 202 199 190 188 188 184 185 186 191 194 187 185 187 189 195 204 212 221 234 242 251 258 266 274 281
151 62 251 249 197 258 356 9 336 329 320 329 354 337 316 269 186 186 194 203 207 199 200 211 207 206 201 195 195 192 193 197 202 198 191 192 199 202 208 212 223 230 240 252 259 269 280 283 285
142 133 228 225 242 286 321 343 328 330 328 324 6 45 347 254 199 204 203 211 214 209 206 211 215 212 210 203 202 202 202 205 210 209 210 208 209 214 218 226 228 237 245 258 272 277 278 279 281
168 210 220 259 276 285 288 302 264 296 294 279 342 341 348 245 221 224 226 223 230 224 220 217 214 219 220 214 211 209 211 214 217 215 221 220 218 223 225 229 234 240 254 265 268 271 277 282 284
219 233 245 294 336 323 301 302 280 246 258 279 287 296 298 307 250 238 242 236 234 233 227 219 231 248 233 225 223 221 218 222 223 218 222 224 224 222 225 233 241 255 266 264 266 275 281 284 284
204 321 320 308 305 296 292 277 273 270 271 276 279 286 295 277 275 267 244 241 240 240 235 225 229 234 232 227 234 230 229 234 229 224 226 225 223 224 224 233 256 263 260 264 275 281 286 286 284
318 297 293 297 280 272 241 274 278 276 279 275 275 287 297 283 270 263 256 236 235 241 237 234 233 238 236 231 245 235 232 234 230 234 228 222 214 233 224 238 265 257 255 265 276 284 286 285 280
314 313 314 254 280 253 190 306 236 317 334 299 272 293 315 345 288 251 248 248 246 242 244 243 246 242 236 233 236 242 232 233 236 238 230 213 219 226 233 241 261 251 252 264 273 279 282 280 276
12 12 337 296 356 12 154 278 323 332 345 327 322 317 321 317 326 295 247 248 245 249 247 249 250 246 243 239 235 240 231 233 232 233 218 214 217 231 249 264 261 245 251 261 270 273 276 273 274
9 251 260 313 75 33 59 287 297 325 329 320 325 325 327 312 311 321 288 251 245 248 255 255 250 250 248 249 245 244 240 237 232 219 217 216 220 223 238 249 247 253 258 262 266 270 269 267 267
195 229 274 262 296 349 338 272 298 327 317 334 3 32 25 10 346 330 307 278 264 248 250 250 252 245 254 254 246 243 237 234 229 215 217 227 223 223 232 246 251 252 253 257 262 264 260 257 256
233 216 251 260 284 303 296 298 358 18 54 55 48 43 41 40 36 27 328 289 263 244 247 238 241 237 247 253 249 241 248 242 232 212 215 227 231 238 232 244 247 250 252 254 258 258 251 247 239
228 251 270 290 254 349 312 348 30 38 53 56 48 41 34 38 42 41 39 28 332 271 239 244 249 243 243 250 254 245 249 244 230 223 219 216 227 240 236 244 248 249 250 254 257 256 251 244 234
235 218 227 223 338 360 322 348 71 60 47 45 44 49 45 39 39 39 39 34 17 333 285 244 244 250 247 241 247 249 247 246 235 228 221 224 223 228 235 240 246 250 249 252 254 255 254 248 242
275 214 222 231 70 192 32 274 173 111 48 37 33 37 39 42 48 46 42 37 28 13 330 293 250 246 248 247 246 253 258 258 250 234 228 223 221 223 230 238 241 248 248 251 254 255 256 254 249
225 145 43 21 109 77 302 95 243 147 55 28 22 32 41 44 45 45 44 41 37 28 14 346 265 244 252 247 248 253 254 255 255 251 232 232 229 235 238 235 245 247 250 252 255 257 260 260 256
85 99 54 51 94 14 222 170 228 206 163 144 34 44 42 41 41 43 43 42 40 38 33 25 3 240 249 264 257 255 256 257 257 253 246 236 230 238 232 244 251 249 249 252 256 259 263 263 261
93 66 324 351 11 219 237 177 252 107 114 136 104 50 43 39 36 35 35 35 34 33 35 34 30 352 270 257 265 262 259 260 262 263 262 252 234 237 241 241 250 249 250 252 257 262 265 266 263
172 160 165 211 189 245 167 228 242 150 121 124 85 59 43 36 34 31 30 30 30 29 26 29 31 9 333 291 268 260 264 264 265 266 263 261 255 242 249 248 250 248 248 251 256 262 266 268 264
199 186 166 104 29 65 225 97 337 157 129 142 90 53 41 38 35 33 29 24 21 23 22 18 19 21 3 306 282 271 260 262 267 270 266 260 256 251 248 254 249 249 249 250 255 262 266 267 263
167 152 86 6 140 235 268 236 241 184 183 161 188 51 33 32 32 33 34 29 20 12 10 13 11 9 6 352 307 283 271 260 257 260 265 264 262 254 244 250 248 248 247 248 252 258 263 264 259
5 339 9 180 152 184 230 254 256 178 157 164 202 202 23 23 18 22 25 24 20 12 1 360 359 359 357 353 343 308 278 264 256 253 254 262 267 258 248 247 248 248 245 246 248 253 258 260 254
227 275 148 159 250 252 164 264 77 129 145 157 188 221 5 358 1 4 9 8 10 10 5 358 349 349 352 347 343 333 300 271 258 250 251 253 259 260 251 246 244 242 241 242 244 249 255 255 248